TimePDT,TemperatureF,Dew PointF,Humidity,Sea Level PressureIn,VisibilityMPH,Wind Direction,Wind SpeedMPH,Gust SpeedMPH,PrecipitationIn,Events,Conditions,WindDirDegrees,DateUTC
12:56 AM,52.0,43.0,71,30.10,10.0,ENE,3.5,-,N/A,,Clear,60,2013-08-11 07:56:00
1:56 AM,50.0,42.1,74,30.09,10.0,Calm,Calm,-,N/A,,Clear,0,2013-08-11 08:56:00
2:56 AM,48.9,42.1,77,30.09,10.0,Calm,Calm,-,N/A,,Clear,0,2013-08-11 09:56:00
3:56 AM,46.9,42.1,83,30.10,10.0,Calm,Calm,-,N/A,,Clear,0,2013-08-11 10:56:00
4:56 AM,46.0,42.1,86,30.10,10.0,Calm,Calm,-,N/A,,Clear,0,2013-08-11 11:56:00
5:56 AM,44.1,39.9,85,30.12,10.0,Calm,Calm,-,N/A,,Clear,0,2013-08-11 12:56:00
6:56 AM,45.0,42.1,90,30.12,10.0,Calm,Calm,-,N/A,,Clear,0,2013-08-11 13:56:00
7:56 AM,54.0,46.0,75,30.11,10.0,Calm,Calm,-,N/A,,Clear,0,2013-08-11 14:56:00
8:56 AM,62.1,48.0,60,30.10,10.0,Calm,Calm,-,N/A,,Clear,0,2013-08-11 15:56:00
9:56 AM,69.1,51.1,53,30.07,10.0,Calm,Calm,-,N/A,,Clear,0,2013-08-11 16:56:00
10:56 AM,75.9,50.0,40,30.05,10.0,Calm,Calm,-,N/A,,Clear,0,2013-08-11 17:56:00
11:56 AM,75.9,50.0,40,30.05,10.0,Calm,Calm,-,N/A,,Clear,0,2013-08-11 18:56:00
12:56 PM,80.1,48.0,32,30.04,10.0,Calm,Calm,-,N/A,,Clear,0,2013-08-11 19:56:00
1:56 PM,82.0,45.0,27,30.02,10.0,Variable,3.5,-,N/A,,Clear,0,2013-08-11 20:56:00
2:56 PM,82.9,44.1,25,30.01,10.0,Calm,Calm,-,N/A,,Clear,0,2013-08-11 21:56:00
3:56 PM,81.0,43.0,26,30.00,10.0,Calm,Calm,-,N/A,,Clear,0,2013-08-11 22:56:00
4:56 PM,82.0,45.0,27,29.99,10.0,Variable,3.5,-,N/A,,Clear,0,2013-08-11 23:56:00
5:56 PM,79.0,45.0,30,29.99,10.0,Variable,3.5,-,N/A,,Clear,0,2013-08-12 00:56:00
6:56 PM,75.0,46.0,36,29.99,10.0,Calm,Calm,-,N/A,,Clear,0,2013-08-12 01:56:00
7:56 PM,70.0,45.0,41,30.00,10.0,Calm,Calm,-,N/A,,Clear,0,2013-08-12 02:56:00
8:56 PM,63.0,45.0,52,30.02,10.0,Calm,Calm,-,N/A,,Clear,0,2013-08-12 03:56:00
9:56 PM,61.0,44.1,54,30.03,10.0,ENE,3.5,-,N/A,,Clear,70,2013-08-12 04:56:00
10:56 PM,60.1,43.0,53,30.02,10.0,Calm,Calm,-,N/A,,Clear,0,2013-08-12 05:56:00
11:56 PM,57.0,43.0,59,30.03,10.0,Calm,Calm,-,N/A,,Clear,0,2013-08-12 06:56:00